Location: Unspecified
(0.0000°N, 0.0000°E)
Time: 11:20:06
(UTC+00:00)

Altair - Pass Details

Date: 20 November 2019
Orbit: 1502 x 1682 km, 47.2° (Epoch: 14 December)

Event Time Altitude Azimuth Distance (km) Brightness Sun altitude
Rises 12:02:18 0° 310° (NW) 4,767 10.0 69.9°
Reaches altitude 10° 12:05:25 10° 306° (NW) 3,808 9.6 69.7°
Maximum altitude 12:14:53 57° 230° (SW) 1,886 9.8 69.0°
Drops below altitude 10° 12:24:44 10° 154° (SSE) 3,931 10.0 68.1°
Sets 12:28:01 0° 149° (SSE) 4,929 10.3 67.7°
